This demonstration page uses our WeatherBlox Daily Observations layout. Learn more.

Left ArrowRight Arrow

36.17497, -115.13722

Hourly Observations for December 27, 2019

Temp ( °F °C ) Dew Point ( °F °C ) Humidity (%) Winds ( mph kmh ) Pressure ( in mb ) Visibility ( mi km ) Precip ( " mm )
12:08 am 00:08 Cloudy with Light Rain 43 6 41 5 93 93 S 5 7 29.90 1013 10 16 0.00 0.00
12:12 am 00:12 Cloudy 43 6 41 5 93 93 S 3 6 29.90 1013 10 16 0.00 0.00
12:40 am 00:40 Partly Cloudy 43 6 43 6 100 100 NNW 3 6 29.90 1013 10 16 0.00 0.00
12:55 am 00:55 Partly Cloudy with Light Rain 43 6 43 6 100 100 E 5 7 29.90 1013 10 16 0.00 0.00
12:58 am 00:58 Partly Cloudy with Light Rain 43 6.2 43 6.2 100 100 ESE 5 7 29.90 1013 10 16 0.00 0.00
1:03 am 01:03 Partly Cloudy 43 6 43 6 100 100 ESE 6 9 29.90 1013 10 16 0.00 0.00
1:14 am 01:14 Partly Cloudy with Light Rain 43 6 43 6 100 100 ESE 3 6 29.90 1013 10 16 0.00 0.00
1:17 am 01:17 Mostly Cloudy with Light Rain 43 6 43 6 100 100 Calm 29.90 1013 10 16 0.00 0.00
1:18 am 01:18 Mostly Cloudy 43 6 43 6 100 100 SSE 3 6 29.90 1013 10 16 0.00 0.00
1:19 am 01:19 Partly Cloudy 43 6 43 6 100 100 Calm 29.90 1013 10 16 0.00 0.00
1:20 am 01:20 Partly Cloudy with Light Rain 43 6 43 6 100 100 Calm 29.90 1013 10 16 0.00 0.00
1:22 am 01:22 Mostly Cloudy with Light Rain 43 6 43 6 100 100 S 3 6 29.90 1013 10 16 0.00 0.00
1:24 am 01:24 Mostly Cloudy 43 6 43 6 100 100 S 3 6 29.90 1013 10 16 0.00 0.00
1:29 am 01:29 Mostly Cloudy with Light Rain 43 6 43 6 100 100 S 3 6 29.90 1013 10 16 0.00 0.00
1:40 am 01:40 Partly Cloudy with Light Rain 43 6 43 6 100 100 SSE 6 9 29.90 1013 10 16 0.00 0.00
1:42 am 01:42 Mostly Cloudy with Light Rain 43 6 43 6 100 100 SSE 5 7 29.90 1013 10 16 0.00 0.00
1:46 am 01:46 Partly Cloudy with Light Rain 43 6 43 6 100 100 SSE 6 9 29.89 1012 10 16 0.00 0.00
1:47 am 01:47 Mostly Cloudy with Light Rain 43 6 43 6 100 100 SSE 6 9 29.89 1012 10 16 0.00 0.00
1:49 am 01:49 Mostly Cloudy 43 6 43 6 100 100 SE 6 9 29.89 1012 10 16 0.00 0.00
1:57 am 01:57 Mostly Cloudy with Light Rain 43 6 43 6 100 100 SW 7 11 29.89 1012 10 16 0.00 0.00
1:58 am 01:58 Mostly Cloudy with Light Rain 43 5.9 43 5.9 100 100 SSW 7 11 29.89 1012 10 16 0.00 0.00
2:18 am 02:18 Partly Cloudy with Light Rain 43 6 43 6 100 100 SSW 3 6 29.89 1012 10 16 0.00 0.00
2:48 am 02:48 Partly Cloudy 43 6 43 6 100 100 Calm 29.88 1012 10 16 0.00 0.00
2:53 am 02:53 Mostly Cloudy 43 6 43 6 100 100 Calm 29.88 1012 10 16 0.00 0.00
2:58 am 02:58 Mostly Cloudy 43 6.1 43 6.1 100 100 Calm 29.88 1012 10 16 0.01 0.25
3:30 am 03:30 Mostly Cloudy 43 6 43 6 100 100 ESE 6 9 29.88 1012 10 16 0.00 0.00
3:58 am 03:58 Cloudy 42 5.7 42 5.7 100 100 SSE 5 7 29.87 1012 10 16 0.00 0.00
4:58 am 04:58 Mostly Clear 43 6 43 6 100 100 SSW 7 11 29.87 1012 10 16 0.00 0.00
5:27 am 05:27 Mostly Cloudy 43 6 43 6 100 100 SW 5 7 29.88 1012 10 16 0.00 0.00
5:41 am 05:41 Partly Cloudy 43 6 43 6 100 100 S 5 7 29.88 1012 10 16 0.00 0.00
5:46 am 05:46 Mostly Cloudy 43 6 43 6 100 100 S 7 11 29.88 1012 10 16 0.00 0.00
5:48 am 05:48 Mostly Cloudy 43 6 43 6 100 100 S 6 9 29.88 1012 10 16 0.00 0.00
5:58 am 05:58 Partly Cloudy 42 5.6 42 5.6 100 100 SSE 5 7 29.89 1012 10 16 0.00 0.00
6:58 am 06:58 Sunny 43 6 N/A N/A SSW 5 7 29.89 1012 10 16 0.00 0.00
7:07 am 07:07 Partly Cloudy with Drizzle 43 6 N/A N/A SSW 6 9 29.89 1012 10 16 0.00 0.00
7:08 am 07:08 Mostly Sunny 43 6 N/A N/A SSW 6 9 29.89 1012 10 16 0.00 0.00
7:58 am 07:58 Cloudy 43 6 N/A N/A NNE 5 7 29.90 1012 10 16 0.00 0.00
8:58 am 08:58 Cloudy 44 6.4 44 6.4 100 100 NNW 3 6 29.93 1014 10 16 0.00 0.00
9:58 am 09:58 Mostly Sunny 46 7.9 40 4.3 78 78 N 5 7 29.92 1013 10 16 0.00 0.00
10:58 am 10:58 Mostly Cloudy 48 8.9 31 -0.7 51 51 NE 9 15 29.89 1012 10 16 0.00 0.00
11:58 am 11:58 Sunny 49 9.3 29 -1.4 47 47 N 6 9 29.88 1012 10 16 0.00 0.00
12:58 pm 12:58 Sunny 51 10.3 29 -1.4 44 44 N 7 11 29.86 1011 10 16 0.00 0.00
1:58 pm 13:58 Mostly Sunny 51 10.8 29 -1.9 41 41 NNE 8 13 29.86 1011 10 16 0.00 0.00
2:58 pm 14:58 Sunny 52 10.9 28 -2.2 40 40 N 6 9 29.86 1011 10 16 0.00 0.00
3:58 pm 15:58 Sunny 51 10.4 31 -0.7 46 46 NNE 7 11 29.88 1012 10 16 0.00 0.00
4:58 pm 16:58 Clear 49 9.3 29 -1.4 47 47 NE 5 7 29.89 1012 10 16 0.00 0.00
5:58 pm 17:58 Clear 45 7.1 33 0.3 62 62 Calm 29.92 1013 10 16 0.00 0.00
6:58 pm 18:58 Clear 43 6.1 32 -0.2 64 64 Calm 29.93 1014 10 16 0.00 0.00
7:58 pm 19:58 Clear 42 5.7 31 -0.4 65 65 Calm 29.94 1014 10 16 0.00 0.00
8:58 pm 20:58 Clear 44 6.7 28 -2.5 52 52 W 8 13 29.94 1014 10 16 0.00 0.00
9:58 pm 21:58 Clear 38 3.6 31 -0.8 73 73 WNW 3 6 29.97 1015 10 16 0.00 0.00
10:58 pm 22:58 Clear 40 4.2 28 -2 64 64 Calm 29.98 1015 10 16 0.00 0.00
11:58 pm 23:58 Clear 39 3.8 27 -3 62 62 E 6 9 29.97 1015 10 16 0.00 0.00

Powered by AerisWeather